Regional Weather Roundup
Issued by NWS

Home | Current Version | Previous Version | Text Only | Print | Product List | Glossary Off
Versions: 1 2 3 4 5 6 7 8 9 10 11 12 13 14 15 16 17 18 19 20 21 22 23 24 25 26 27 28 29 30 31 32 33 34 35 36 37 38 39 40 41 42 43 44 45 46 47 48 49 50

000
ASUS45 KCYS 260610
RWRWY

WYOMING REGIONAL WEATHER ROUNDUP
NATIONAL WEATHER SERVICE CHEYENNE WY
1200 AM MDT TUE SEP 26 2017

NOTE:  "FAIR" INDICATES FEW OR NO CLOUDS BELOW 12,000 FEET
WITH NO SIGNIFICANT WEATHER AND/OR OBSTRUCTIONS TO VISIBILITY.

WYZ001-260700-
YELLOWSTONE NATIONAL PARK

CITY           SKY/WX    TMP DP  RH WIND       PRES   REMARKS
LK YELLOWSTONE NOT AVBL
W YELLOWSTONE  NOT AVBL

$$
WYZ002>013-054>058-071-098>099-260700-
NORTHERN WYOMING

CITY           SKY/WX    TMP DP  RH WIND       PRES   REMARKS
JACKSON        FAIR      34  29  82 S3        30.18S
CODY           FAIR      40  36  86 CALM      30.11S
GREYBULL       CLOUDY    45  41  86 SE5       30.10R
6HR MIN TEMP:  45; 6HR MAX TEMP:  52;

WORLAND        MOCLDY    38  38 100 SE6       30.10R WCI  33
6HR MIN TEMP:  38; 6HR MAX TEMP:  52;

SHERIDAN       FAIR      36  34  92 CALM      30.07S
6HR MIN TEMP:  35; 6HR MAX TEMP:  50;

BUFFALO        FAIR      42  33  70 W3        30.10S
6HR MIN TEMP:  39; 6HR MAX TEMP:  46;

GILLETTE       CLOUDY    43  40  89 S8        30.08S
6HR MIN TEMP:  38; 6HR MAX TEMP:  49;

HULETT         FOG       37  36  93 S7        30.10S VSB 1/4 WCI  32
NEWCASTLE      CLOUDY    43  41  93 SE3       30.13R

$$
WYZ014>020-022>026-101>103-260700-
CENTRAL WYOMING

CITY           SKY/WX    TMP DP  RH WIND       PRES   REMARKS
BIG PINEY      FAIR      29  25  85 CALM      30.19R
6HR MIN TEMP:  27; 6HR MAX TEMP:  44;

PINEDALE       FAIR      30  28  93 NW5       30.18S WCI  25
DUBOIS         MOCLDY    32  28  86 NW10      30.16S WCI  24
LANDER         FAIR      40  35  83 SW5       30.13R
6HR MIN TEMP:  39; 6HR MAX TEMP:  48;

RIVERTON       FAIR      41  35  79 SE3       30.14R
6HR MIN TEMP:  40; 6HR MAX TEMP:  50;

CASPER         FAIR      36  33  89 SW7       30.13S WCI  30
6HR MIN TEMP:  35; 6HR MAX TEMP:  49;

DOUGLAS        FAIR      40  36  86 CALM      30.13R
6HR MIN TEMP:  39; 6HR MAX TEMP:  51; 6HR PCP:  0.01;


$$
WYZ021-027>030-104>119-260700-
SOUTHERN WYOMING

CITY           SKY/WX    TMP DP  RH WIND       PRES   REMARKS
EVANSTON       FAIR      36  31  82 E5        30.19S WCI  32
6HR MIN TEMP:  36; 6HR MAX TEMP:  45;

FORT BRIDGER   PTCLDY    37  30  75 S3        30.22S
ROCK SPRINGS   FAIR      35  28  75 NW7       30.18S WCI  29
6HR MIN TEMP:  35; 6HR MAX TEMP:  45;

DIXON          FAIR      34  29  80 E6        30.21S WCI  29
RAWLINS        CLOUDY    40  31  70 W9        30.16S WCI  34
6HR MIN TEMP:  35; 6HR MAX TEMP:  45;

SARATOGA       FAIR      30  30 100 SE8       30.19S WCI  23
LARAMIE        FAIR      32  29  88 W7        30.16S WCI  26
6HR MIN TEMP:  32; 6HR MAX TEMP:  46;

CHEYENNE       CLOUDY    42  39  89 SW7       30.16S
6HR MIN TEMP:  39; 6HR MAX TEMP:  50; 6HR PCP:  0.06;

TORRINGTON     FAIR      41  40  96 SE5       30.12R
6HR MIN TEMP:  41; 6HR MAX TEMP:  54; 6HR PCP:  0.01;

PINE BLUFFS    MOCLDY    39  39 100 MISG      30.16R

$$



USA.gov is the U.S. government's official web portal to all federal, state and local government web resources and services.